| time (UTC) | temp F | wind direction | speed MPH | gust MPH | rain 1hr in | rain 24hr in | rain mn in | humidity % | barometer mb |
| 20260505051919 | 0 | 0 | 0.0 | 0.0 | 0.00 | 0.00 | 0.00 | 43 | 946.0 |
| 20260505050916 | 0 | 0 | 0.0 | 0.0 | 0.00 | 0.00 | 0.00 | 44 | 946.2 |
| 20260505040914 | 0 | 0 | 0.0 | 0.0 | 0.00 | 0.00 | 0.00 | 48 | 946.3 |
| 20260505035911 | 0 | 0 | 0.0 | 0.0 | 0.00 | 0.00 | 0.00 | 48 | 946.2 |
| 20260505034908 | 0 | 0 | 0.0 | 0.0 | 0.00 | 0.00 | 0.00 | 48 | 946.3 |
| 20260505033905 | 0 | 0 | 0.0 | 0.0 | 0.00 | 0.00 | 0.00 | 48 | 946.4 |
| 20260505032918 | 0 | 0 | 0.0 | 0.0 | 0.00 | 0.00 | 0.00 | 48 | 946.4 |
| 20260505031916 | 0 | 0 | 0.0 | 0.0 | 0.00 | 0.00 | 0.00 | 49 | 946.4 |
| 20260505030912 | 0 | 0 | 0.0 | 0.0 | 0.00 | 0.00 | 0.00 | 49 | 946.4 |
| 20260505025909 | 0 | 0 | 0.0 | 0.0 | 0.00 | 0.00 | 0.00 | 50 | 946.4 |
| 20260505024906 | 0 | 0 | 0.0 | 0.0 | 0.00 | 0.00 | 0.00 | 50 | 946.4 |
| 20260505023920 | 0 | 0 | 0.0 | 0.0 | 0.00 | 0.00 | 0.00 | 50 | 946.4 |
| 20260505022917 | 0 | 0 | 0.0 | 0.0 | 0.00 | 0.00 | 0.00 | 49 | 946.3 |
| 20260505021914 | 0 | 0 | 0.0 | 0.0 | 0.00 | 0.00 | 0.00 | 50 | 946.3 |
| 20260505020911 | 0 | 0 | 0.0 | 0.0 | 0.00 | 0.00 | 0.00 | 50 | 946.2 |
| 20260505013349 | 0 | 0 | 0.0 | 0.0 | 0.00 | 0.00 | 0.00 | 49 | 945.8 |
| 20260505012345 | 0 | 0 | 0.0 | 0.0 | 0.00 | 0.00 | 0.00 | 49 | 945.7 |
| 20260505011342 | 0 | 0 | 0.0 | 0.0 | 0.00 | 0.00 | 0.00 | 49 | 945.6 |
| 20260505010356 | 0 | 0 | 0.0 | 0.0 | 0.00 | 0.00 | 0.00 | 49 | 945.5 |
| 20260505005353 | 0 | 0 | 0.0 | 0.0 | 0.00 | 0.00 | 0.00 | 49 | 945.5 |
| 20260505004350 | 0 | 0 | 0.0 | 0.0 | 0.00 | 0.00 | 0.00 | 48 | 945.4 |
| 20260505003347 | 0 | 0 | 0.0 | 0.0 | 0.00 | 0.00 | 0.00 | 48 | 945.3 |
| 20260505002344 | 0 | 0 | 0.0 | 0.0 | 0.00 | 0.00 | 0.00 | 48 | 945.3 |
| 20260505001341 | 0 | 0 | 0.0 | 0.0 | 0.00 | 0.00 | 0.00 | 48 | 945.1 |
| 20260505000355 | 0 | 0 | 0.0 | 0.0 | 0.00 | 0.00 | 0.00 | 48 | 945.1 |
| 20260504235352 | 0 | 0 | 0.0 | 0.0 | 0.00 | 0.00 | 0.00 | 47 | 944.9 |
| 20260504234349 | 0 | 0 | 0.0 | 0.0 | 0.00 | 0.00 | 0.00 | 47 | 944.8 |
| 20260504233346 | 0 | 0 | 0.0 | 0.0 | 0.00 | 0.00 | 0.00 | 47 | 944.7 |
| 20260504232343 | 0 | 0 | 0.0 | 0.0 | 0.00 | 0.00 | 0.00 | 47 | 944.6 |
| 20260504231356 | 0 | 0 | 0.0 | 0.0 | 0.00 | 0.00 | 0.00 | 46 | 944.6 |
| 20260504230353 | 0 | 0 | 0.0 | 0.0 | 0.00 | 0.00 | 0.00 | 46 | 944.4 |
| 20260504225350 | 0 | 0 | 0.0 | 0.0 | 0.00 | 0.00 | 0.00 | 46 | 944.3 |
| 20260504224347 | 0 | 0 | 0.0 | 0.0 | 0.00 | 0.00 | 0.00 | 46 | 944.3 |
| 20260504223344 | 0 | 0 | 0.0 | 0.0 | 0.00 | 0.00 | 0.00 | 46 | 944.3 |
| 20260504222341 | 0 | 0 | 0.0 | 0.0 | 0.00 | 0.00 | 0.00 | 46 | 944.2 |
| 20260504221355 | 0 | 0 | 0.0 | 0.0 | 0.00 | 0.00 | 0.00 | 46 | 944.2 |
| 20260504220352 | 0 | 0 | 0.0 | 0.0 | 0.00 | 0.00 | 0.00 | 46 | 944.1 |
| 20260504215349 | 0 | 0 | 0.0 | 0.0 | 0.00 | 0.00 | 0.00 | 46 | 944.0 |
| 20260504214346 | 0 | 0 | 0.0 | 0.0 | 0.00 | 0.00 | 0.00 | 46 | 944.0 |
| 20260504213343 | 0 | 0 | 0.0 | 0.0 | 0.00 | 0.00 | 0.00 | 46 | 943.9 |
| 20260504212356 | 0 | 0 | 0.0 | 0.0 | 0.00 | 0.00 | 0.00 | 46 | 943.8 |
| 20260504211353 | 0 | 0 | 0.0 | 0.0 | 0.00 | 0.00 | 0.00 | 46 | 943.9 |
| 20260504210350 | 0 | 0 | 0.0 | 0.0 | 0.00 | 0.00 | 0.00 | 46 | 943.9 |
| 20260504205347 | 0 | 0 | 0.0 | 0.0 | 0.00 | 0.00 | 0.00 | 46 | 944.0 |
| 20260504204345 | 0 | 0 | 0.0 | 0.0 | 0.00 | 0.00 | 0.00 | 46 | 943.9 |
| 20260504203341 | 0 | 0 | 0.0 | 0.0 | 0.00 | 0.00 | 0.00 | 46 | 944.1 |
| 20260504202354 | 0 | 0 | 0.0 | 0.0 | 0.00 | 0.00 | 0.00 | 45 | 944.1 |
| 20260504201351 | 0 | 0 | 0.0 | 0.0 | 0.00 | 0.00 | 0.00 | 45 | 944.2 |
| 20260504200348 | 0 | 0 | 0.0 | 0.0 | 0.00 | 0.00 | 0.00 | 45 | 944.2 |
| 20260504195345 | 0 | 0 | 0.0 | 0.0 | 0.00 | 0.00 | 0.00 | 45 | 944.3 |
| 20260504194342 | 0 | 0 | 0.0 | 0.0 | 0.00 | 0.00 | 0.00 | 45 | 944.2 |
| 20260504193355 | 0 | 0 | 0.0 | 0.0 | 0.00 | 0.00 | 0.00 | 45 | 944.3 |
| 20260504192353 | 0 | 0 | 0.0 | 0.0 | 0.00 | 0.00 | 0.00 | 45 | 944.3 |
| 20260504191350 | 0 | 0 | 0.0 | 0.0 | 0.00 | 0.00 | 0.00 | 44 | 944.4 |
| 20260504190346 | 0 | 0 | 0.0 | 0.0 | 0.00 | 0.00 | 0.00 | 44 | 944.4 |
| 20260504185343 | 0 | 0 | 0.0 | 0.0 | 0.00 | 0.00 | 0.00 | 44 | 944.5 |
| 20260504184357 | 0 | 0 | 0.0 | 0.0 | 0.00 | 0.00 | 0.00 | 44 | 944.5 |
| 20260504183354 | 0 | 0 | 0.0 | 0.0 | 0.00 | 0.00 | 0.00 | 44 | 944.6 |
| 20260504182351 | 0 | 0 | 0.0 | 0.0 | 0.00 | 0.00 | 0.00 | 44 | 944.5 |
| 20260504181348 | 0 | 0 | 0.0 | 0.0 | 0.00 | 0.00 | 0.00 | 43 | 944.6 |
| 20260504180345 | 0 | 0 | 0.0 | 0.0 | 0.00 | 0.00 | 0.00 | 43 | 944.6 |
| 20260504175342 | 0 | 0 | 0.0 | 0.0 | 0.00 | 0.00 | 0.00 | 43 | 944.6 |
| 20260504174355 | 0 | 0 | 0.0 | 0.0 | 0.00 | 0.00 | 0.00 | 42 | 944.7 |
| 20260504173352 | 0 | 0 | 0.0 | 0.0 | 0.00 | 0.00 | 0.00 | 42 | 944.6 |
| 20260504172349 | 0 | 0 | 0.0 | 0.0 | 0.00 | 0.00 | 0.00 | 42 | 944.5 |
| 20260504171346 | 0 | 0 | 0.0 | 0.0 | 0.00 | 0.00 | 0.00 | 42 | 944.5 |
| 20260504170343 | 0 | 0 | 0.0 | 0.0 | 0.00 | 0.00 | 0.00 | 42 | 944.6 |
| 20260504160342 | 0 | 0 | 0.0 | 0.0 | 0.00 | 0.00 | 0.00 | 42 | 944.1 |
| 20260504150358 | 0 | 0 | 0.0 | 0.0 | 0.00 | 0.00 | 0.00 | 39 | 943.3 |
| 20260504140355 | 0 | 0 | 0.0 | 0.0 | 0.00 | 0.00 | 0.00 | 36 | 942.7 |
| 20260504130353 | 0 | 0 | 0.0 | 0.0 | 0.00 | 0.00 | 0.00 | 33 | 942.1 |
| 20260504110350 | 0 | 0 | 0.0 | 0.0 | 0.00 | 0.00 | 0.00 | 27 | 941.6 |
| 20260504100348 | 0 | 0 | 0.0 | 0.0 | 0.00 | 0.00 | 0.00 | 29 | 942.0 |
| 20260504081347 | 0 | 0 | 0.0 | 0.0 | 0.00 | 0.00 | 0.00 | 30 | 943.2 |
| 20260504080344 | 0 | 0 | 0.0 | 0.0 | 0.00 | 0.00 | 0.00 | 30 | 943.2 |
| 20260504070358 | 0 | 0 | 0.0 | 0.0 | 0.00 | 0.00 | 0.00 | 30 | 944.0 |